DAL1048 KDTW-KDCA

Flight info

Callsign DAL1048
Flight time 1h 2m
Altitude 31000
Route LIDDS4 GRIVY BUCKO FRDMM6
Aircraft A319/M-SDE3FGHIRWY/LB1

Departure

Time 2026-04-19 23:51
Airport Detroit Metropolitan Wayne County Airport (KDTW)

Arrival

Time 2026-04-20 00:53
Airport Ronald Reagan Washington National Airport (KDCA)
Time Latitude Longitude Altitude Speed Heading
2026-04-19 23:34 42.21372 -83.35345 646 ft 0 kts 298°
2026-04-19 23:40 42.21370 -83.35341 646 ft 3 kts 298°
2026-04-19 23:41 42.21358 -83.35310 646 ft 4 kts 308°
2026-04-19 23:41 42.21340 -83.35295 646 ft 4 kts 10°
2026-04-19 23:41 42.21320 -83.35304 648 ft 4 kts 25°
2026-04-19 23:41 42.21312 -83.35309 646 ft 0 kts 25°
2026-04-19 23:44 42.21313 -83.35309 646 ft 1 kts 25°
2026-04-19 23:44 42.21335 -83.35294 649 ft 8 kts 25°
2026-04-19 23:44 42.21393 -83.35257 646 ft 11 kts 26°
2026-04-19 23:44 42.21450 -83.35182 648 ft 12 kts 49°
2026-04-19 23:45 42.21521 -83.35122 647 ft 13 kts 29°
2026-04-19 23:45 42.21591 -83.35040 647 ft 15 kts 44°
2026-04-19 23:45 42.21668 -83.34940 646 ft 15 kts 44°
2026-04-19 23:45 42.21744 -83.34842 649 ft 15 kts 43°
2026-04-19 23:46 42.21819 -83.34744 648 ft 14 kts 49°
2026-04-19 23:46 42.21836 -83.34616 647 ft 14 kts 90°
2026-04-19 23:46 42.21865 -83.34497 648 ft 14 kts 41°
2026-04-19 23:46 42.21959 -83.34425 646 ft 17 kts 29°
2026-04-19 23:47 42.22070 -83.34342 646 ft 20 kts 28°
2026-04-19 23:47 42.22196 -83.34250 646 ft 22 kts 28°
2026-04-19 23:47 42.22339 -83.34145 647 ft 24 kts 28°
2026-04-19 23:47 42.22489 -83.34034 646 ft 26 kts 29°
2026-04-19 23:48 42.22653 -83.33913 646 ft 27 kts 28°
2026-04-19 23:48 42.22795 -83.33811 646 ft 17 kts 28°
2026-04-19 23:48 42.22860 -83.33743 645 ft 11 kts 77°
2026-04-19 23:48 42.22832 -83.33647 645 ft 11 kts 121°
2026-04-19 23:49 42.22789 -83.33642 645 ft 0 kts 207°
2026-04-19 23:50 42.22754 -83.33667 647 ft 30 kts 207°
2026-04-19 23:50 42.22290 -83.34010 647 ft 120 kts 208°
2026-04-19 23:51 42.21389 -83.34675 940 ft 158 kts 212°
2026-04-19 23:51 42.20397 -83.35368 1767 ft 163 kts 214°
2026-04-19 23:51 42.19373 -83.36046 2605 ft 166 kts 208°
2026-04-19 23:51 42.18187 -83.36297 3061 ft 190 kts 183°
2026-04-19 23:52 42.16795 -83.36227 3503 ft 209 kts 181°
2026-04-19 23:52 42.15275 -83.36136 3911 ft 230 kts 182°
2026-04-19 23:52 42.13591 -83.36036 4343 ft 255 kts 181°
2026-04-19 23:52 42.11742 -83.35931 4970 ft 274 kts 182°
2026-04-19 23:53 42.09815 -83.35818 5962 ft 279 kts 182°
2026-04-19 23:53 42.07860 -83.35688 6718 ft 283 kts 180°
2026-04-19 23:53 42.05945 -83.34990 6952 ft 290 kts 158°
2026-04-19 23:53 42.04308 -83.33392 7012 ft 295 kts 135°
2026-04-19 23:54 42.03201 -83.31115 7017 ft 296 kts 112°
2026-04-19 23:54 42.02691 -83.28445 7011 ft 296 kts 99°
2026-04-19 23:54 42.02309 -83.25721 7008 ft 296 kts 99°
2026-04-19 23:54 42.01922 -83.23003 7010 ft 296 kts 100°
2026-04-19 23:55 42.01547 -83.20280 7008 ft 296 kts 96°
2026-04-19 23:55 42.01504 -83.17521 7048 ft 297 kts 81°
2026-04-19 23:55 42.01869 -83.14764 7905 ft 300 kts 76°
2026-04-19 23:55 42.02260 -83.11984 8662 ft 305 kts 77°
2026-04-19 23:56 42.02640 -83.09173 8939 ft 307 kts 77°
2026-04-19 23:56 42.03019 -83.06316 9807 ft 311 kts 78°
2026-04-19 23:56 42.03405 -83.03403 10490 ft 327 kts 78°
2026-04-19 23:56 42.03814 -83.00332 10834 ft 350 kts 78°
2026-04-19 23:57 42.04255 -82.97013 11305 ft 368 kts 78°
2026-04-19 23:57 42.04710 -82.93585 12060 ft 375 kts 78°
2026-04-19 23:57 42.05173 -82.90107 12869 ft 381 kts 79°
2026-04-19 23:57 42.05640 -82.86577 13662 ft 386 kts 79°
2026-04-19 23:58 42.06113 -82.82997 14403 ft 392 kts 79°
2026-04-19 23:58 42.06593 -82.79363 14881 ft 396 kts 79°
2026-04-19 23:58 42.06991 -82.75693 15011 ft 397 kts 86°
2026-04-19 23:58 42.06937 -82.72028 15065 ft 399 kts 98°
2026-04-19 23:59 42.06371 -82.68360 15779 ft 401 kts 107°
2026-04-19 23:59 42.05674 -82.64704 16555 ft 405 kts 106°
2026-04-19 23:59 42.04987 -82.61004 17269 ft 410 kts 106°
2026-04-19 23:59 42.04299 -82.57266 17971 ft 415 kts 106°
2026-04-20 00:00 42.03605 -82.53473 18630 ft 420 kts 105°
2026-04-20 00:00 42.02902 -82.49642 19229 ft 424 kts 105°
2026-04-20 00:00 42.02194 -82.45767 19828 ft 429 kts 105°
2026-04-20 00:00 42.01482 -82.41856 20449 ft 433 kts 105°
2026-04-20 00:01 42.00765 -82.37908 21071 ft 437 kts 105°
2026-04-20 00:01 42.00053 -82.33985 21647 ft 441 kts 105°
2026-04-20 00:01 41.98572 -82.25905 22754 ft 449 kts 104°
2026-04-20 00:02 41.97812 -82.21810 23283 ft 454 kts 104°
2026-04-20 00:02 41.97040 -82.17680 23786 ft 458 kts 105°
2026-04-20 00:02 41.96011 -82.13621 24183 ft 461 kts 115°
2026-04-20 00:02 41.94511 -82.09805 24575 ft 463 kts 125°
2026-04-20 00:03 41.92580 -82.06342 24970 ft 463 kts 135°
2026-04-20 00:03 41.90285 -82.03320 25290 ft 463 kts 145°
2026-04-20 00:03 41.87751 -82.00631 25645 ft 466 kts 147°
2026-04-20 00:03 41.85187 -81.97939 26022 ft 470 kts 147°
2026-04-20 00:04 41.82634 -81.95262 26394 ft 474 kts 147°
2026-04-20 00:04 41.80028 -81.92531 26783 ft 477 kts 147°
2026-04-20 00:04 41.77406 -81.89786 27149 ft 481 kts 147°
2026-04-20 00:04 41.74760 -81.87013 27499 ft 484 kts 147°
2026-04-20 00:05 41.72101 -81.84229 27845 ft 488 kts 147°
2026-04-20 00:05 41.69413 -81.81425 28154 ft 491 kts 147°
2026-04-20 00:05 41.66683 -81.78664 28448 ft 494 kts 149°
2026-04-20 00:05 41.63902 -81.75939 28766 ft 497 kts 149°
2026-04-20 00:06 41.61128 -81.73270 29061 ft 500 kts 150°
2026-04-20 00:06 41.58292 -81.70552 29367 ft 503 kts 150°
2026-04-20 00:06 41.55446 -81.67814 29671 ft 506 kts 149°
2026-04-20 00:06 41.52588 -81.65046 29946 ft 509 kts 149°
2026-04-20 00:07 41.49722 -81.62258 30319 ft 510 kts 149°
2026-04-20 00:07 41.46864 -81.59465 30715 ft 508 kts 149°
2026-04-20 00:07 41.44020 -81.56687 31014 ft 507 kts 150°
2026-04-20 00:07 41.41179 -81.53912 31117 ft 505 kts 150°
2026-04-20 00:08 41.38394 -81.51196 31135 ft 500 kts 150°
2026-04-20 00:08 41.32792 -81.45761 31135 ft 498 kts 150°
2026-04-20 00:09 41.27183 -81.40348 31143 ft 498 kts 150°
2026-04-20 00:09 41.21578 -81.34949 31136 ft 498 kts 151°
2026-04-20 00:10 41.15973 -81.29550 31134 ft 497 kts 151°
2026-04-20 00:10 41.10419 -81.24208 31134 ft 496 kts 151°
2026-04-20 00:11 41.04767 -81.19010 31149 ft 492 kts 155°
2026-04-20 00:11 40.98936 -81.14352 31116 ft 488 kts 158°
2026-04-20 00:12 40.93057 -81.09871 31137 ft 488 kts 158°
2026-04-20 00:12 40.87259 -81.05322 31159 ft 488 kts 157°
2026-04-20 00:13 40.81453 -81.00652 31173 ft 489 kts 156°
2026-04-20 00:13 40.75651 -80.95987 31177 ft 488 kts 157°
2026-04-20 00:14 40.69829 -80.91353 31194 ft 489 kts 158°
2026-04-20 00:14 40.64053 -80.86777 31196 ft 487 kts 158°
2026-04-20 00:15 40.58257 -80.82194 31195 ft 485 kts 158°
2026-04-20 00:15 40.52470 -80.77624 31146 ft 484 kts 159°
2026-04-20 00:16 40.46701 -80.73074 31165 ft 483 kts 159°
2026-04-20 00:16 40.40937 -80.68535 31159 ft 483 kts 159°
2026-04-20 00:17 40.35218 -80.64051 31161 ft 482 kts 159°
2026-04-20 00:17 40.29464 -80.59545 31166 ft 482 kts 159°
2026-04-20 00:18 40.23708 -80.55036 31156 ft 482 kts 159°
2026-04-20 00:18 40.17952 -80.50541 31170 ft 481 kts 159°
2026-04-20 00:19 40.12257 -80.46104 31185 ft 479 kts 159°
2026-04-20 00:19 40.06538 -80.41661 31124 ft 477 kts 160°
2026-04-20 00:20 40.00827 -80.37234 31168 ft 477 kts 160°
2026-04-20 00:20 39.95130 -80.32817 31165 ft 476 kts 160°
2026-04-20 00:21 39.89439 -80.28408 31163 ft 475 kts 160°
2026-04-20 00:21 39.83794 -80.24053 31099 ft 475 kts 161°
2026-04-20 00:22 39.78106 -80.19675 31149 ft 475 kts 161°
2026-04-20 00:22 39.72412 -80.15298 31126 ft 474 kts 161°
2026-04-20 00:23 39.66750 -80.10954 31175 ft 471 kts 161°
2026-04-20 00:23 39.61150 -80.06661 31185 ft 470 kts 161°
2026-04-20 00:24 39.55533 -80.02374 31147 ft 468 kts 161°
2026-04-20 00:24 39.49927 -79.98105 31156 ft 467 kts 162°
2026-04-20 00:25 39.44332 -79.93854 31169 ft 466 kts 161°
2026-04-20 00:25 39.38777 -79.89627 31159 ft 466 kts 161°
2026-04-20 00:25 39.36031 -79.87348 31065 ft 477 kts 154°
2026-04-20 00:26 39.33524 -79.84456 31158 ft 492 kts 143°
2026-04-20 00:26 39.31364 -79.80937 31168 ft 508 kts 132°
2026-04-20 00:26 39.29691 -79.76858 31023 ft 522 kts 120°
2026-04-20 00:26 39.28645 -79.72344 30652 ft 530 kts 106°
2026-04-20 00:27 39.28221 -79.67593 30432 ft 535 kts 100°
2026-04-20 00:27 39.27870 -79.62814 30153 ft 534 kts 101°
2026-04-20 00:27 39.27496 -79.58116 29902 ft 534 kts 101°
2026-04-20 00:27 39.27102 -79.53357 29655 ft 534 kts 101°
2026-04-20 00:28 39.26702 -79.48598 29412 ft 534 kts 101°
2026-04-20 00:28 39.26300 -79.43822 29166 ft 535 kts 101°
2026-04-20 00:28 39.25902 -79.39054 28921 ft 534 kts 102°
2026-04-20 00:28 39.25510 -79.34290 28678 ft 534 kts 102°
2026-04-20 00:29 39.25119 -79.29526 28436 ft 530 kts 102°
2026-04-20 00:29 39.24741 -79.24878 28124 ft 513 kts 102°
2026-04-20 00:29 39.24371 -79.20341 27524 ft 503 kts 102°
2026-04-20 00:29 39.24002 -79.15888 27184 ft 499 kts 102°
2026-04-20 00:30 39.23624 -79.11443 26597 ft 497 kts 102°
2026-04-20 00:30 39.23250 -79.07087 26061 ft 493 kts 101°
2026-04-20 00:30 39.22871 -79.02717 25512 ft 489 kts 102°
2026-04-20 00:30 39.22490 -78.98370 24968 ft 487 kts 102°
2026-04-20 00:31 39.22106 -78.94053 24425 ft 484 kts 102°
2026-04-20 00:31 39.21706 -78.89758 23892 ft 481 kts 102°
2026-04-20 00:31 39.21291 -78.85476 23290 ft 480 kts 102°
2026-04-20 00:31 39.20871 -78.81226 22769 ft 477 kts 102°
2026-04-20 00:32 39.20445 -78.76994 22275 ft 474 kts 101°
2026-04-20 00:32 39.20024 -78.72802 21721 ft 473 kts 101°
2026-04-20 00:32 39.19614 -78.68671 21289 ft 468 kts 101°
2026-04-20 00:32 39.19201 -78.64500 20854 ft 465 kts 101°
2026-04-20 00:33 39.18798 -78.60402 20442 ft 460 kts 101°
2026-04-20 00:33 39.18397 -78.56318 19966 ft 458 kts 100°
2026-04-20 00:33 39.17997 -78.52261 19485 ft 456 kts 100°
2026-04-20 00:33 39.17597 -78.48223 18995 ft 453 kts 99°
2026-04-20 00:34 39.17193 -78.44204 18543 ft 451 kts 99°
2026-04-20 00:34 39.16790 -78.40215 18056 ft 448 kts 99°
2026-04-20 00:34 39.16288 -78.36274 17553 ft 442 kts 107°
2026-04-20 00:34 39.15421 -78.32569 17110 ft 436 kts 111°
2026-04-20 00:35 39.14497 -78.28867 16658 ft 432 kts 111°
2026-04-20 00:35 39.13586 -78.25199 16229 ft 428 kts 110°
2026-04-20 00:35 39.12688 -78.21572 15795 ft 424 kts 110°
2026-04-20 00:35 39.11797 -78.17973 15367 ft 420 kts 110°
2026-04-20 00:36 39.10909 -78.14406 14947 ft 416 kts 109°
2026-04-20 00:36 39.10029 -78.10874 14540 ft 412 kts 109°
2026-04-20 00:36 39.09154 -78.07397 13899 ft 406 kts 109°
2026-04-20 00:36 39.08277 -78.03962 13320 ft 401 kts 109°
2026-04-20 00:37 39.07419 -78.00631 12949 ft 395 kts 109°
2026-04-20 00:37 39.06557 -77.97295 12526 ft 390 kts 109°
2026-04-20 00:37 39.05710 -77.94007 12170 ft 384 kts 109°
2026-04-20 00:37 39.04880 -77.90781 11902 ft 374 kts 109°
2026-04-20 00:38 39.04079 -77.87656 11633 ft 361 kts 108°
2026-04-20 00:38 39.03303 -77.84644 11368 ft 349 kts 108°
2026-04-20 00:38 39.02549 -77.81725 11119 ft 340 kts 108°
2026-04-20 00:38 39.01811 -77.78864 10887 ft 336 kts 108°
2026-04-20 00:39 39.01087 -77.76021 10636 ft 333 kts 107°
2026-04-20 00:39 39.00374 -77.73246 10393 ft 330 kts 107°
2026-04-20 00:39 38.99649 -77.70460 10155 ft 328 kts 107°
2026-04-20 00:39 38.98928 -77.67694 9934 ft 325 kts 107°
2026-04-20 00:40 38.98175 -77.64965 9792 ft 324 kts 113°
2026-04-20 00:40 38.97241 -77.62336 9672 ft 323 kts 114°
2026-04-20 00:40 38.96320 -77.59716 9421 ft 321 kts 114°
2026-04-20 00:40 38.95411 -77.57101 9169 ft 319 kts 113°
2026-04-20 00:41 38.94506 -77.54512 8918 ft 317 kts 114°
2026-04-20 00:41 38.93615 -77.51976 8672 ft 315 kts 114°
2026-04-20 00:41 38.92715 -77.49426 8420 ft 312 kts 114°
2026-04-20 00:41 38.91822 -77.46895 8172 ft 310 kts 114°
2026-04-20 00:42 38.90917 -77.44384 7928 ft 309 kts 116°
2026-04-20 00:42 38.89927 -77.41951 7576 ft 307 kts 118°
2026-04-20 00:42 38.88897 -77.39599 7358 ft 298 kts 119°
2026-04-20 00:42 38.87870 -77.37308 6988 ft 297 kts 120°
2026-04-20 00:43 38.86851 -77.35030 6712 ft 291 kts 120°
2026-04-20 00:43 38.85852 -77.32774 6308 ft 290 kts 119°
2026-04-20 00:43 38.84869 -77.30539 6041 ft 284 kts 119°
2026-04-20 00:43 38.83906 -77.28378 5982 ft 279 kts 120°
2026-04-20 00:44 38.82964 -77.26299 5989 ft 262 kts 120°
2026-04-20 00:44 38.82066 -77.24320 5988 ft 254 kts 120°
2026-04-20 00:44 38.81183 -77.22372 5889 ft 254 kts 120°
2026-04-20 00:44 38.80294 -77.20418 5522 ft 253 kts 120°
2026-04-20 00:45 38.79414 -77.18476 5155 ft 251 kts 119°
2026-04-20 00:45 38.78547 -77.16558 4793 ft 247 kts 119°
2026-04-20 00:45 38.77668 -77.14679 4421 ft 245 kts 125°
2026-04-20 00:45 38.76532 -77.13102 4064 ft 243 kts 141°
2026-04-20 00:46 38.75109 -77.11948 3713 ft 243 kts 158°
2026-04-20 00:46 38.73509 -77.11296 3354 ft 241 kts 174°
2026-04-20 00:46 38.71849 -77.11129 3025 ft 238 kts 182°
2026-04-20 00:46 38.70212 -77.11044 2982 ft 234 kts 182°
2026-04-20 00:47 38.68585 -77.10918 2981 ft 236 kts 176°
2026-04-20 00:47 38.66972 -77.10506 2912 ft 238 kts 165°
2026-04-20 00:47 38.65523 -77.09595 2762 ft 229 kts 147°
2026-04-20 00:47 38.64554 -77.08061 2559 ft 219 kts 108°
2026-04-20 00:48 38.64383 -77.06240 2513 ft 205 kts 83°
2026-04-20 00:48 38.64677 -77.04524 2513 ft 192 kts 53°
2026-04-20 00:48 38.65598 -77.03399 2521 ft 179 kts 25°
2026-04-20 00:48 38.66696 -77.02707 2519 ft 174 kts 17°
2026-04-20 00:49 38.67843 -77.02302 2490 ft 170 kts
2026-04-20 00:49 38.69012 -77.02222 2493 ft 168 kts 357°
2026-04-20 00:49 38.70186 -77.02169 2532 ft 170 kts 354°
2026-04-20 00:49 38.71357 -77.02227 2250 ft 167 kts 351°
2026-04-20 00:50 38.72504 -77.02395 1935 ft 165 kts 348°
2026-04-20 00:50 38.73614 -77.02637 1789 ft 163 kts 342°
2026-04-20 00:50 38.74688 -77.03089 1716 ft 163 kts 339°
2026-04-20 00:50 38.75793 -77.03448 1487 ft 166 kts 348°
2026-04-20 00:51 38.76940 -77.03454 1280 ft 167 kts
2026-04-20 00:51 38.78079 -77.03161 1010 ft 163 kts
2026-04-20 00:51 38.79097 -77.03134 893 ft 134 kts 350°
2026-04-20 00:51 38.80001 -77.03262 776 ft 128 kts 353°
2026-04-20 00:52 38.80874 -77.03329 679 ft 124 kts 353°
2026-04-20 00:52 38.81713 -77.03425 524 ft 121 kts 352°
2026-04-20 00:52 38.82553 -77.03508 337 ft 122 kts 349°
2026-04-20 00:52 38.83399 -77.03595 198 ft 122 kts 351°
2026-04-20 00:53 38.84254 -77.03686 55 ft 123 kts 350°
2026-04-20 00:53 38.85004 -77.03770 24 ft 76 kts 355°
2026-04-20 00:53 38.85375 -77.03804 26 ft 42 kts 356°
2026-04-20 00:53 38.85509 -77.03886 27 ft 16 kts 283°
2026-04-20 00:54 38.85507 -77.03940 24 ft 0 kts 263°
2026-04-20 00:54 38.85507 -77.03945 24 ft 1 kts 266°
2026-04-20 00:54 38.85515 -77.03971 27 ft 6 kts 302°
2026-04-20 00:54 38.85493 -77.04011 26 ft 10 kts 188°
2026-04-20 00:55 38.85437 -77.04008 24 ft 1 kts 172°
2026-04-20 00:55 38.85429 -77.04006 24 ft 3 kts 172°
2026-04-20 00:55 38.85358 -77.03996 24 ft 10 kts 174°
2026-04-20 00:55 38.85302 -77.04024 25 ft 9 kts 221°
2026-04-20 00:56 38.85264 -77.04073 26 ft 1 kts 224°
2026-04-20 00:56 38.85262 -77.04076 -3 ft 0 kts 223°